Regional Weather Roundup
Issued by NWS

Home | Current Version | Previous Version | Text Only | Print | Product List | Glossary Off
Versions: 1 2 3 4 5 6 7 8 9 10 11 12 13 14 15 16 17 18 19 20 21 22 23 24 25 26 27 28 29 30 31 32 33 34 35 36 37 38 39 40 41 42 43 44 45 46 47 48 49 50

000
ASUS43 KMKX 310021
RWRWI

WISCONSIN REGIONAL WEATHER ROUNDUP
NATIONAL WEATHER SERVICE MILWAUKEE/SULLIVAN WI
700 PM CDT SUN AUG 30 2015

NOTE: "FAIR" INDICATES FEW OR NO CLOUDS BELOW 12,000 FEET WITH NO
SIGNIFICANT WEATHER AND/OR OBSTRUCTIONS TO VISIBILITY.

WIZ001-002-006>008-014>016-023>028-310100-
NORTHWEST WISCONSIN

CITY           SKY/WX    TMP DP  RH WIND       PRES   REMARKS
SUPERIOR ARPT  CLEAR     76  65  67 SW9       29.85S
6HR MIN TEMP:  76; 6HR MAX TEMP:  83;

ASHLAND        CLEAR     74  64  71 SW8       29.88S
6HR MIN TEMP:  74; 6HR MAX TEMP:  83;

HAYWARD        CLEAR     73  64  73 S8        29.93S
6HR MIN TEMP:  73; 6HR MAX TEMP:  78;

SIREN          CLEAR     76  65  68 S7        29.91F
6HR MIN TEMP:  76; 6HR MAX TEMP:  81;

CUMBERLAND     CLEAR     70  64  83 S6        29.94F
RICE LAKE      CLEAR     71  65  79 S7        29.95F
6HR MIN TEMP:  71; 6HR MAX TEMP:  76;

CHETEK         CLEAR    N/A N/A N/A S5        29.95S
LADYSMITH      CLEAR     71  65  79 S6        29.97S
6HR MIN TEMP:  73; 6HR MAX TEMP:  78;

EAU CLAIRE     CLEAR     73  64  73 S7        29.95F
6HR MIN TEMP:  73; 6HR MAX TEMP:  77;

MENOMONIE      CLEAR     71  65  80 S6        29.95F
6HR MIN TEMP:  71; 6HR MAX TEMP:  78;

NEW RICHMOND   CLEAR     73  64  73 S9        29.94S
6HR MIN TEMP:  73; 6HR MAX TEMP:  79;

OSCEOLA        CLEAR     75  65  70 S10       29.94F
6HR MIN TEMP:  74; 6HR MAX TEMP:  80;

$$

WIZ003>005-009-010-017-018-310100-
NORTH CENTRAL WISCONSIN

CITY           SKY/WX    TMP DP  RH WIND       PRES   REMARKS
MANITOWISH WTR CLEAR     73  64  74 SW7       29.95S
6HR MIN TEMP:  73; 6HR MAX TEMP:  79;

ARBOR VITAE    CLEAR     73  65  74 SW6       29.96S
6HR MIN TEMP:  73; 6HR MAX TEMP:  80;

WOODRUFF       CLEAR     73  65  74 SW6       29.96S
6HR MIN TEMP:  73; 6HR MAX TEMP:  80;

RHINELANDER    CLEAR     73  63  70 SW8       29.98F
6HR MIN TEMP:  71; 6HR MAX TEMP:  78;

EAGLE RIVER    CLEAR     72  61  67 SW6       29.96S
6HR MIN TEMP:  72; 6HR MAX TEMP:  76;

LAND O LAKES   CLEAR     73  63  68 SW5       29.96S
6HR MIN TEMP:  73; 6HR MAX TEMP:  78;

PHILLIPS       CLEAR     72  65  78 SW6       29.96S
6HR MIN TEMP:  72; 6HR MAX TEMP:  77;

TOMAHAWK       CLEAR     71  63  75 CALM      29.98S
6HR MIN TEMP:  71; 6HR MAX TEMP:  77;

MEDFORD        CLEAR     69  64  82 SW6       29.99S
6HR MIN TEMP:  69; 6HR MAX TEMP:  74;

MERRILL        CLEAR     72  64  75 SW5       29.98S
6HR MIN TEMP:  71; 6HR MAX TEMP:  77;

$$

WIZ029-030-035-036-043>047-310100-
CENTRAL WISCONSIN

CITY           SKY/WX    TMP DP  RH WIND       PRES   REMARKS
WAUSAU         CLEAR     73  63  70 SW6       29.97F
6HR MIN TEMP:  72; 6HR MAX TEMP:  78;

MOSINEE        NOT AVBL
MARSHFIELD     CLEAR     72  63  73 SW6       29.98F
6HR MIN TEMP:  72; 6HR MAX TEMP:  78;

STEVENS POINT  CLEAR     71  63  74 SW6       29.99S
6HR MIN TEMP:  70; 6HR MAX TEMP:  75;

WAUPACA        CLEAR     73  67  81 CALM      29.98F
6HR MIN TEMP:  73; 6HR MAX TEMP:  78;

WAUTOMA        CLEAR     73  67  81 CALM      29.99F
6HR MIN TEMP:  72; 6HR MAX TEMP:  77;

WISC RAPIDS    CLEAR     72  63  73 S6        30.00S
6HR MIN TEMP:  72; 6HR MAX TEMP:  76;

CAMP DOUGLAS   CLEAR     72  72  99 S5        29.98F
6HR MIN TEMP:  72; 6HR MAX TEMP:  76;

$$

WIZ011>013-019>022-031-037>040-048>050-310100-
NORTHEAST WISCONSIN

CITY           SKY/WX    TMP DP  RH WIND       PRES   REMARKS
ANTIGO         CLEAR     71  64  78 SW7       29.99F
SHAWANO        CLEAR     73  65  74 CALM      29.97F
6HR MIN TEMP:  73; 6HR MAX TEMP:  77;

OCONTO         CLEAR     71  66  84 SW7       29.96F
6HR MIN TEMP:  71; 6HR MAX TEMP:  75;

STURGEON BAY   CLEAR     66  61  82 S6        30.00S
6HR MIN TEMP:  68; 6HR MAX TEMP:  73;

GREEN BAY      CLEAR     70  65  84 SW3       29.98F
6HR MIN TEMP:  70; 6HR MAX TEMP:  75;

MANITOWOC      CLEAR     64  60  87 MISG      30.00F
6HR MIN TEMP:  64; 6HR MAX TEMP:  73;

APPLETON       CLEAR     72  63  73 S7        29.98F
CLINTONVILLE   CLEAR     72  63  73 S7        29.98S
OSHKOSH        CLEAR     69  64  84 S5        29.99F
6HR MIN TEMP:  69; 6HR MAX TEMP:  74;

$$

WIZ032>034-041-042-053>061-310100-
SOUTHWEST WISCONSIN

CITY           SKY/WX    TMP DP  RH WIND       PRES   REMARKS
LA CROSSE      CLEAR     73  64  73 SW9       29.97F
6HR MIN TEMP:  72; 6HR MAX TEMP:  76;

SPARTA         CLEAR     71  62  73 S3        29.99F
6HR MIN TEMP:  71; 6HR MAX TEMP:  76;

VIROQUA          N/A     69  65  86 S5        30.02S
6HR MIN TEMP:  69; 6HR MAX TEMP:  73;

BOSCOBEL       PTCLDY    74  65  73 CALM      30.00F
6HR MIN TEMP:  73; 6HR MAX TEMP:  77;

PRAIRIE DU CHI CLEAR     73  63  71 CALM      29.99F
6HR MIN TEMP:  71; 6HR MAX TEMP:  75;

PLATTEVILLE    CLEAR     70  67  89 CALM      30.02S
6HR MIN TEMP:  70; 6HR MAX TEMP:  74;

$$

WIZ056-057-062-063-064-067-068-310100-
SOUTH CENTRAL WISCONSIN

CITY           SKY/WX    TMP DP  RH WIND       PRES   REMARKS
REEDSBURG      CLEAR     71  65  79 SW6       30.00S
6HR MIN TEMP:  71; 6HR MAX TEMP:  75;

BARABOO/DELLS  CLEAR     71  63  75 SW6       30.00F
6HR MIN TEMP:  71; 6HR MAX TEMP:  75;

LONE ROCK      CLEAR     73  64  73 W3        30.01S
6HR MIN TEMP:  73; 6HR MAX TEMP:  76;

MINERAL POINT  CLEAR     72  66  83 CALM      30.03S
MADISON        MOCLDY    72  63  73 CALM      30.00F
6HR MIN TEMP:  70; 6HR MAX TEMP:  74;

MIDDLETON      CLEAR     73  63  72 SW3       30.02S
6HR MIN TEMP:  73; 6HR MAX TEMP:  76;

WATERTOWN      CLEAR     69  69  99 CALM      30.01S
6HR MIN TEMP:  69; 6HR MAX TEMP:  73;

MONROE         CLEAR     70  64  83 S3        30.01F
JANESVILLE     CLEAR     72  63  73 S3        30.01F
$$

WIZ051-052-058>065-066-070>072-310100-
SOUTHEAST WISCONSIN

CITY           SKY/WX    TMP DP  RH WIND       PRES   REMARKS
MILWAUKEE      PTCLDY    66  61  84 SE6       30.01F
6HR MIN TEMP:  66; 6HR MAX TEMP:  72;

WAUKESHA       CLEAR     66  63  88 W7        30.02F
MILWAUKEE/TIMM CLEAR     70  61  73 E5        30.02F
RACINE         CLEAR     67  61  81 SE7       30.03F
6HR MIN TEMP:  67; 6HR MAX TEMP:  72;

BURLINGTON     CLEAR     67  63  86 S3        30.01F
6HR MIN TEMP:  67; 6HR MAX TEMP:  74;

KENOSHA        CLEAR     67  63  87 E6        30.03S
6HR MIN TEMP:  67; 6HR MAX TEMP:  73;

FOND DU LAC    CLEAR     70  64  81 S5        30.00S
6HR MIN TEMP:  70; 6HR MAX TEMP:  74;

SHEBOYGAN      CLEAR     66  62  87 S6        30.00F
6HR MIN TEMP:  66; 6HR MAX TEMP:  73;

WEST BEND      CLEAR     68  61  77 CALM      30.01F
JUNEAU         CLEAR     69  64  83 S5        30.02F
6HR MIN TEMP:  69; 6HR MAX TEMP:  71; 6HR PCP:  0.05;

$$

LSZ147-162-310100-
LAKE SUPERIOR

STATION/POSITION TIME  TEMP    WIND        PRES    WAVE
                       AIR SEA DIR/SP/G            HT/PER
                 (UTC) (F)     (DEG/KT/KT) (MB)    (FT/S)
W MID LAKE BUOY  2350   62 56  220/  4/  4 1010.7F   1
DEVILS ISLAND    0000   71     210/  8/ 10 1010.6S
PORT WING        2300   79     200/  6/ 11 1011.2S
SAXON HARBOR     2340   79     200/  6/ 10 1010.8F
$$

LMZ867-665-643>646-310100-
LAKE MICHIGAN

STATION/POSITION TIME  TEMP    WIND        PRES    WAVE
                       AIR SEA DIR/SP/G            HT/PER



USA.gov is the U.S. government's official web portal to all federal, state and local government web resources and services.